Wind_Speed
5 5 5 7 8 10 11 13 14 15 15 15 13 12 12 11 8 9 11 10 11 11 12 17 19 21 20 18 16 11 9 14 20 19 12 11 11 12 13 13 14 15 13 17 25 29 32 34 33 32 30 31 35 36 37 37 35 35 33 31 29 29 29 29 28 28 28 27 24 24 26 23 20 20 18 18 18 16 15 16 17 17 17 17 18 19
5 6 8 10 12 13 14 14 15 16 17 15 12 12 11 10 8 10 13 12 12 11 10 16 21 23 20 15 15 16 12 11 16 20 17 14 12 12 14 16 15 13 11 15 20 24 29 32 33 33 30 32 35 35 37 36 34 34 33 32 31 30 30 29 29 29 29 29 27 26 26 24 21 19 18 19 19 17 16 17 17 17 16 16 18 18
6 7 10 14 13 14 15 15 15 16 17 14 11 10 10 9 9 10 13 14 13 9 7 14 19 18 17 16 15 17 17 12 10 14 16 15 13 11 13 15 15 13 13 15 16 19 26 30 32 31 29 31 35 35 37 35 33 33 32 32 32 31 31 30 30 30 30 30 29 27 26 24 22 19 17 18 19 19 18 17 17 17 16 16 17 17
6 7 10 14 13 14 15 15 17 15 12 11 10 8 8 10 10 8 8 13 15 11 9 11 12 10 12 16 16 14 18 16 11 11 13 15 14 13 13 14 16 16 16 17 17 17 21 26 29 28 28 30 33 34 35 34 32 32 32 32 32 32 31 31 32 31 30 29 28 26 25 24 21 19 16 15 18 19 18 17 16 16 16 16 17 16
9 10 11 13 14 15 15 14 15 12 8 10 12 11 9 11 13 11 10 11 12 14 15 11 9 8 9 16 17 12 15 18 15 11 9 12 12 12 13 14 17 19 18 19 19 18 18 21 26 28 29 31 32 34 34 34 33 33 32 31 32 32 31 33 33 32 31 29 27 25 24 22 20 19 18 17 19 19 18 18 16 16 16 16 16 15
11 12 13 14 14 15 15 13 13 11 8 8 12 14 14 14 14 15 17 13 7 10 13 11 8 7 9 17 19 15 14 14 14 14 12 11 9 10 12 13 16 18 19 21 21 20 19 20 24 28 30 32 33 33 33 34 35 33 32 31 32 33 32 33 33 33 32 30 28 28 27 24 23 22 21 22 22 22 21 20 18 17 17 16 16 15
7 10 12 15 14 15 15 13 13 12 8 7 9 13 17 17 16 16 19 14 6 6 10 11 9 5 5 13 17 17 17 16 13 14 17 14 9 11 13 13 16 17 17 19 20 20 19 20 22 25 30 33 34 33 33 33 33 33 32 31 33 34 33 33 33 33 33 31 30 30 29 27 26 25 23 24 24 23 23 21 20 20 19 18 17 15
6 10 11 13 13 12 11 10 12 13 9 6 8 12 15 18 19 19 18 13 6 7 10 11 11 7 4 8 14 16 18 20 18 15 17 17 13 14 14 14 18 19 18 18 18 20 20 21 23 26 30 34 34 33 32 32 32 33 33 31 33 34 33 33 34 33 34 32 31 31 29 27 27 26 25 26 26 24 23 23 22 21 20 18 16 15
7 10 11 12 11 8 8 9 12 14 11 8 10 14 13 14 18 18 16 12 7 7 9 10 11 9 6 6 12 18 18 20 22 19 18 18 17 16 15 15 18 19 20 20 19 20 20 21 26 30 33 34 34 33 33 33 33 33 31 30 32 34 33 33 34 33 33 33 33 32 29 26 26 25 26 27 26 24 25 24 22 21 20 17 16 15
8 11 11 10 9 6 8 11 11 12 10 10 12 15 14 13 13 14 13 11 7 7 9 12 12 9 7 7 9 16 19 19 20 19 18 17 17 16 15 16 18 17 18 19 20 21 21 25 31 33 34 34 33 33 33 32 32 32 30 31 33 33 33 34 34 34 33 33 33 32 29 27 26 26 27 27 25 25 26 24 22 21 19 17 15 13
10 13 13 9 6 7 9 12 11 9 8 10 12 12 12 12 9 8 9 9 7 7 10 15 17 11 6 7 8 10 14 18 16 13 15 17 17 16 14 16 18 16 15 16 18 19 21 26 32 33 32 33 32 32 32 32 32 32 31 32 34 33 33 33 34 34 32 32 33 31 30 29 29 29 29 28 27 27 26 24 22 20 18 17 15 13
10 11 10 8 8 9 10 11 11 10 8 8 8 7 7 8 6 5 6 8 6 7 11 15 17 12 6 5 8 9 12 17 16 12 15 19 20 18 14 15 17 17 17 16 16 16 16 19 23 27 29 31 31 31 32 33 32 31 32 33 33 32 32 33 33 34 33 32 32 31 30 30 31 31 31 30 29 28 27 26 23 22 20 18 17 16
8 9 9 10 10 9 8 7 8 8 9 7 6 5 5 4 5 5 5 6 6 7 11 13 11 8 6 6 10 16 14 14 13 13 17 19 20 18 15 16 16 16 18 16 15 15 15 16 17 21 26 29 30 31 33 34 32 31 32 34 34 32 32 33 33 33 33 32 31 30 30 31 31 31 31 31 30 29 28 27 25 24 23 21 20 18
4 7 10 11 9 8 7 4 4 5 5 6 5 5 5 3 4 5 4 5 5 6 12 13 8 4 4 7 13 19 15 12 12 14 16 17 18 17 16 17 15 16 18 17 16 16 16 17 17 20 26 29 29 31 34 35 33 31 32 33 34 32 32 33 34 33 32 31 31 30 30 30 31 31 31 31 30 29 27 27 26 25 24 22 21 20
2 5 6 8 5 6 9 7 6 7 7 8 6 4 5 5 5 4 3 3 5 5 8 9 6 2 2 6 11 13 10 9 11 15 15 14 17 18 17 18 17 17 18 16 16 18 18 19 19 22 27 28 30 32 33 34 33 31 32 34 34 33 33 34 34 33 32 31 30 30 29 30 31 31 31 30 29 28 27 26 25 25 23 21 20 21
5 6 7 9 7 6 8 9 9 8 7 8 6 4 5 6 6 4 3 4 4 4 4 3 3 2 4 10 8 9 11 10 10 14 16 13 18 20 18 19 18 17 17 16 16 17 17 18 20 23 26 27 29 31 32 34 35 32 33 35 34 34 33 34 34 34 32 31 30 30 29 29 30 30 30 29 27 26 26 26 26 25 23 21 21 22
4 5 7 9 8 6 7 8 9 8 5 5 4 4 5 7 7 5 4 5 4 3 3 1 3 4 6 12 10 8 13 14 11 13 15 16 21 21 19 18 18 17 18 17 17 17 17 17 19 23 26 27 29 31 33 36 37 35 34 34 33 33 33 34 34 34 32 31 31 30 29 30 30 30 29 28 27 27 27 27 27 25 23 22 22 22
4 5 7 8 10 9 8 9 10 11 9 5 3 3 4 7 8 4 3 4 2 2 2 3 5 6 6 7 8 8 9 12 13 11 15 20 22 21 18 18 20 20 20 21 19 18 18 17 17 21 26 29 31 33 35 36 38 35 33 34 34 33 34 34 34 33 32 32 32 31 30 31 31 30 29 29 28 29 28 26 26 25 24 24 23 21
5 4 6 8 11 10 8 8 9 11 12 10 6 4 2 2 6 4 2 2 2 2 3 5 7 7 5 4 7 9 7 10 14 9 15 21 22 20 17 18 22 21 19 21 19 16 17 16 18 23 26 29 31 33 34 35 35 33 32 33 33 33 34 34 33 33 32 33 32 31 31 32 31 30 29 29 29 29 28 26 27 27 25 25 22 22
3 1 4 4 4 4 4 5 6 6 9 10 9 5 0 2 3 4 2 3 2 2 3 6 6 5 6 5 7 8 8 12 16 9 13 19 20 19 16 16 20 20 18 19 18 16 17 17 20 26 29 29 31 32 33 33 33 32 32 33 33 33 33 33 33 32 32 33 31 30 31 32 31 30 30 30 30 29 28 29 30 28 26 24 23 24
3 1 3 3 3 3 2 5 6 6 6 6 6 4 2 2 3 5 4 5 3 2 2 3 4 5 6 5 5 7 10 13 13 9 12 16 18 17 15 15 18 19 18 19 17 16 17 17 19 26 29 29 29 30 31 32 32 31 31 33 33 33 33 33 33 32 32 32 31 31 32 33 32 30 30 30 30 29 30 31 30 29 27 25 25 25
3 2 2 4 4 3 5 7 9 9 7 6 4 4 4 3 2 4 5 6 5 3 3 2 3 7 7 5 5 6 10 11 9 11 13 15 17 16 14 16 19 19 19 20 18 17 17 16 18 23 26 26 27 28 30 31 31 30 30 32 33 33 34 34 33 32 32 32 32 32 33 33 31 30 30 31 31 30 31 30 29 28 27 27 26 25
1 1 2 5 6 8 10 9 12 13 10 8 6 5 5 4 3 3 5 5 3 4 6 2 4 8 7 6 8 8 10 10 8 11 12 13 16 15 15 17 19 20 20 21 19 17 16 16 19 23 25 25 26 27 29 29 30 30 31 32 33 33 33 34 33 32 32 32 32 33 33 33 31 31 32 32 31 31 31 29 27 28 28 27 26 24
2 2 2 5 6 7 10 9 12 13 9 7 6 6 7 6 5 6 7 6 4 3 4 1 3 8 7 7 10 10 9 6 7 12 11 9 10 13 17 18 18 20 21 20 18 16 15 16 18 19 20 22 24 25 27 29 30 31 31 31 31 32 33 33 33 32 32 32 33 33 34 33 32 32 33 33 32 32 31 29 27 27 27 26 25 25
2 1 1 3 3 2 3 3 8 10 7 5 5 7 10 10 10 9 7 8 6 4 3 1 3 7 8 10 9 8 8 4 4 9 11 8 7 11 15 17 18 20 20 19 17 16 16 17 17 16 17 21 24 25 27 29 29 31 31 31 31 31 32 33 33 33 33 33 34 34 34 33 33 33 34 33 32 31 32 31 28 27 26 25 25 26
2 1 1 1 2 2 1 1 4 6 5 4 5 9 12 12 12 8 5 5 6 4 1 1 3 8 12 15 13 7 6 7 3 6 9 10 8 10 13 14 17 18 19 19 18 17 17 17 17 16 17 21 25 26 27 28 29 30 31 30 30 31 32 33 33 33 33 35 35 35 34 34 34 34 34 33 32 30 31 30 28 28 27 26 26 27
2 2 2 2 3 3 4 6 5 2 6 8 9 12 13 11 10 7 4 4 5 3 1 3 6 10 14 16 16 15 7 3 5 6 7 9 10 13 14 14 16 17 18 19 17 17 18 17 18 18 18 21 26 27 28 28 29 29 29 29 30 31 32 32 33 33 34 35 35 34 34 34 34 35 34 32 32 31 30 29 29 29 29 28 28 28
0 0 3 5 6 8 9 9 11 9 7 10 11 12 10 9 10 8 5 6 8 6 5 5 6 7 10 13 12 14 14 5 1 3 5 8 10 13 16 17 17 17 18 18 17 19 19 18 18 18 16 20 24 25 27 28 28 29 29 29 30 31 32 32 33 33 34 35 34 33 33 34 34 34 33 32 31 31 29 29 30 31 31 30 30 29
1 1 2 3 6 11 9 6 8 12 11 10 11 10 9 9 12 10 6 7 9 8 6 3 4 6 8 12 12 11 13 11 3 4 3 7 9 12 17 20 20 19 20 20 19 19 19 18 18 16 16 18 22 24 26 26 27 28 28 29 30 31 32 33 34 34 34 34 33 33 33 33 34 34 33 31 31 31 31 31 32 32 31 31 30 29
2 1 6 8 9 13 9 4 5 7 7 9 11 9 10 12 13 10 6 9 13 10 4 3 3 9 7 8 12 12 13 14 7 6 6 7 8 11 17 21 21 21 21 20 20 19 18 18 18 17 17 18 21 24 25 26 28 29 29 29 29 30 32 34 35 34 34 33 32 33 33 33 34 34 34 33 32 31 32 32 32 32 32 31 30 29
2 2 7 7 6 10 8 7 9 9 7 7 9 10 12 13 12 9 7 11 13 8 5 5 6 9 6 4 10 12 13 15 7 7 7 7 9 10 14 17 19 20 20 19 19 19 18 18 17 17 17 18 22 26 26 27 28 29 29 29 29 30 32 34 34 33 33 32 32 32 33 33 33 34 34 33 32 32 33 33 32 32 31 31 29 28
2 1 4 4 4 6 6 9 11 9 6 8 9 10 12 11 9 9 9 10 8 4 7 10 6 5 5 4 8 10 11 12 6 6 6 6 9 9 11 15 16 17 17 16 16 15 16 17 17 17 18 19 24 26 26 27 28 29 29 29 29 30 32 33 33 33 32 32 32 32 33 33 33 33 33 33 33 33 33 32 31 31 31 30 29 28
3 1 2 3 2 3 5 8 9 7 3 6 8 9 10 9 8 9 9 9 7 6 8 8 4 4 5 3 5 9 10 9 4 4 1 4 9 7 7 10 13 16 17 17 17 16 16 15 16 17 18 21 25 27 28 29 29 29 29 29 29 30 32 32 33 32 31 32 33 33 32 33 33 32 32 33 34 34 33 31 31 32 31 30 29 28
4 4 3 0 1 3 7 8 5 2 2 5 5 6 10 12 10 10 8 8 10 7 5 4 4 4 3 3 4 9 12 9 3 2 4 6 10 7 6 8 9 12 16 18 18 17 16 15 14 17 21 24 27 29 29 29 29 29 29 29 30 30 31 32 32 31 31 32 34 34 33 33 33 32 33 34 34 34 33 31 31 31 30 30 29 29
4 4 4 2 1 3 6 6 4 1 4 7 8 6 7 9 9 8 7 8 10 8 6 5 6 6 5 7 9 9 12 12 7 5 4 7 11 9 8 8 7 5 9 14 16 16 16 15 14 16 22 26 29 30 29 29 30 30 29 30 31 30 30 31 31 30 31 33 34 35 34 33 33 32 32 33 33 33 32 31 31 31 30 30 30 30
6 4 3 2 2 2 4 4 1 4 8 11 11 7 5 4 4 6 7 9 9 7 8 7 8 8 7 9 9 10 11 10 7 6 6 5 8 9 9 10 10 8 10 10 12 13 15 17 19 20 23 27 30 30 30 30 32 31 29 30 31 31 30 30 29 30 31 33 34 36 35 34 33 32 31 32 32 32 32 31 31 31 30 30 30 30
5 4 3 1 1 0 1 3 3 5 9 9 5 3 3 2 4 5 5 8 7 5 6 7 8 9 9 9 9 8 5 4 4 6 7 5 5 8 9 11 15 16 15 12 12 15 19 24 26 26 28 29 30 30 29 31 32 31 28 29 30 31 30 30 29 30 31 32 33 35 35 35 34 32 31 32 31 32 32 31 31 31 30 30 30 29
6 4 3 2 1 1 1 3 3 3 5 5 5 7 4 3 7 7 4 4 5 4 3 2 6 9 9 8 10 7 3 4 4 5 6 6 5 7 8 10 13 15 15 14 14 14 19 25 27 29 31 30 30 30 30 31 32 30 28 28 28 29 29 29 28 30 32 32 33 34 34 35 35 33 31 31 31 31 31 31 31 31 30 30 30 29
5 3 5 3 1 1 1 2 2 2 4 6 8 11 9 9 11 7 1 3 5 9 10 7 4 6 7 7 8 7 4 4 5 5 5 2 3 4 6 9 11 12 15 19 20 17 20 26 29 30 32 30 29 31 32 32 32 29 26 27 27 27 27 28 29 31 33 33 33 34 33 34 35 33 32 32 31 31 31 30 30 30 30 30 30 29
5 3 3 2 2 2 2 1 2 3 5 7 9 11 13 13 10 5 0 5 7 10 10 8 8 8 7 8 7 6 5 6 5 5 6 3 5 5 5 6 8 9 10 16 23 24 26 30 29 27 28 29 30 32 33 32 31 28 26 26 27 26 26 28 30 31 33 33 34 34 34 33 32 32 32 32 31 30 31 30 29 29 29 29 29 29
5 3 0 1 3 3 2 2 3 3 4 6 7 10 13 10 6 2 4 6 6 9 9 8 8 10 7 6 8 6 6 7 7 6 6 5 4 3 4 5 8 11 10 12 20 26 27 28 29 28 28 30 32 33 32 30 28 26 26 26 25 24 26 29 31 32 32 33 33 33 33 32 32 32 32 32 32 30 30 30 30 30 30 29 30 30
3 3 1 1 2 3 3 3 3 3 4 5 7 8 7 3 0 3 5 5 6 8 9 8 7 8 8 3 5 6 6 6 6 6 7 7 6 6 6 8 9 11 13 15 21 26 26 23 24 26 27 30 33 33 32 30 27 25 26 25 24 24 27 30 32 32 32 32 31 31 31 32 33 32 31 31 31 30 30 29 30 30 31 30 30 29
2 3 3 2 1 2 3 3 2 3 4 6 8 6 3 2 2 4 5 8 9 9 9 8 6 6 6 4 5 6 5 6 6 6 7 7 7 7 8 11 11 10 11 13 16 23 25 22 22 25 27 30 33 33 32 30 27 26 26 25 26 28 30 31 32 33 33 31 30 30 31 32 32 31 29 29 30 31 31 30 30 30 31 31 30 29
1 1 2 2 0 0 2 2 2 3 6 7 6 4 3 2 3 4 5 6 9 10 9 7 5 7 6 3 7 8 5 2 2 4 7 7 7 7 8 11 13 11 11 13 17 24 26 22 21 24 28 31 32 32 33 32 28 26 26 26 28 31 32 32 33 33 32 31 30 30 31 31 31 31 31 30 31 32 31 30 30 29 29 30 30 29
2 3 2 2 2 2 3 4 4 6 8 7 5 4 5 5 5 4 3 4 6 9 10 8 6 7 7 3 6 7 8 9 10 6 0 5 8 10 10 12 13 14 15 17 21 25 26 25 25 25 26 30 32 32 33 34 31 28 26 28 31 33 33 33 33 31 30 30 31 31 31 31 31 31 32 32 33 33 32 31 30 29 29 29 30 29
5 4 2 2 3 3 4 7 7 6 6 6 7 7 8 6 5 4 4 4 6 9 10 9 7 7 6 4 5 5 5 7 11 12 11 7 2 3 7 11 13 14 16 18 21 25 26 26 26 25 24 26 30 31 31 32 33 30 28 29 32 33 33 33 31 30 30 30 32 33 32 31 30 30 31 32 32 33 33 33 33 31 29 29 29 28
3 4 2 2 3 2 3 7 6 5 5 4 5 9 11 9 6 3 3 4 5 9 12 11 7 5 4 5 5 4 4 7 10 11 11 11 11 11 6 4 9 11 14 17 20 24 26 24 21 21 22 22 26 29 30 29 31 31 29 29 31 31 32 32 30 30 30 30 31 32 31 31 30 29 30 30 30 30 31 31 32 31 30 29 28 26
2 4 3 3 3 3 3 5 6 6 6 4 1 4 10 11 8 6 3 3 3 9 13 10 4 3 4 6 5 5 6 8 9 9 7 7 10 13 12 7 4 2 10 18 21 23 24 22 19 19 19 20 22 26 29 28 28 29 29 30 31 32 33 32 31 31 30 30 30 30 30 31 31 30 29 29 29 30 30 30 31 31 30 31 31 29
3 1 2 4 5 4 3 5 6 5 5 3 1 2 7 9 9 8 4 1 4 11 10 6 6 5 6 7 6 7 9 8 8 10 8 6 8 10 11 11 11 9 6 4 14 22 22 20 22 21 18 19 22 23 25 26 26 26 28 30 31 33 33 32 31 31 30 29 28 28 28 29 30 30 29 29 29 29 30 31 32 32 30 30 31 31
2 1 2 3 5 4 3 4 3 2 4 6 4 5 8 8 9 9 5 4 6 9 8 8 7 6 8 7 6 7 8 7 8 11 9 7 8 9 8 11 10 10 14 14 2 16 23 19 21 23 19 19 22 21 22 23 23 24 26 28 29 31 32 31 29 28 27 26 26 26 27 28 28 28 28 28 27 26 25 26 27 27 26 26 27 29
1 2 1 1 4 8 7 6 3 2 4 6 5 6 6 5 7 11 7 3 4 6 7 8 7 7 7 7 6 7 8 7 7 10 10 8 7 7 9 11 10 8 8 15 12 5 19 21 21 22 20 20 23 23 22 23 23 23 27 29 29 30 32 31 29 26 25 25 25 27 27 27 27 26 25 25 25 24 23 22 21 21 22 23 24 25
Wind_Direction
207 209 224 223 230 232 233 230 233 246 248 246 250 254 255 252 248 243 243 240 226 229 222 211 219 228 227 228 232 229 206 208 223 221 202 179 170 169 169 166 164 164 163 159 158 156 155 159 162 164 163 160 163 167 169 173 177 178 178 181 181 179 183 183 177 173 170 170 168 165 166 169 174 179 183 181 177 176 177 182 183 178 177 174 167 159
234 218 221 223 230 234 239 241 235 239 247 250 250 254 261 258 257 243 236 242 237 234 225 211 218 223 219 221 225 223 217 212 215 212 202 191 180 171 168 167 168 163 156 153 152 152 154 157 162 164 163 161 162 167 171 174 176 177 178 181 181 179 182 183 178 176 174 174 175 172 170 171 173 178 183 179 175 176 177 181 184 180 175 170 163 156
254 240 228 225 229 232 236 243 243 240 239 244 249 251 258 263 274 262 237 237 240 243 236 217 219 221 211 218 225 214 214 220 211 202 197 193 188 179 171 166 164 156 151 154 149 151 156 158 161 162 163 165 165 168 173 176 176 177 179 181 181 180 182 182 180 178 177 179 182 179 173 172 172 175 182 177 173 178 178 176 181 179 171 164 157 153
243 249 241 232 232 234 235 237 243 246 239 236 240 244 251 252 261 272 250 237 234 238 248 233 226 222 209 220 229 218 215 219 213 202 200 197 192 187 180 165 159 157 155 156 152 153 157 157 160 162 164 165 166 170 175 176 176 179 181 180 180 180 182 183 182 180 179 179 181 179 175 173 170 172 178 174 174 179 175 171 176 175 168 160 155 156
240 245 246 238 230 233 240 238 238 244 245 235 232 235 245 249 249 257 267 258 238 236 240 236 233 230 211 216 223 218 217 220 218 210 205 205 196 184 180 168 161 161 158 157 156 156 157 159 162 163 163 165 169 174 177 176 176 181 183 180 179 181 183 184 184 182 180 177 174 171 166 163 162 166 172 171 170 172 169 168 171 168 161 156 156 166
247 244 243 244 232 227 236 242 241 238 246 245 232 230 236 249 253 252 263 267 251 241 233 220 227 232 212 210 210 205 209 218 222 219 213 212 200 176 175 171 165 164 161 159 160 159 160 161 160 160 163 167 174 179 179 177 178 182 183 181 181 182 184 184 184 183 181 178 172 165 159 158 159 161 167 171 168 165 164 165 165 162 160 161 164 171
255 250 245 251 245 232 228 234 244 242 245 248 235 229 227 238 252 254 258 258 244 252 242 224 225 236 223 209 200 195 202 210 218 220 215 214 203 183 177 170 166 165 163 162 161 160 160 159 159 162 167 171 176 180 179 178 179 181 182 182 182 183 184 184 183 185 183 179 174 168 163 163 163 161 166 173 170 165 164 162 162 163 165 169 170 168
258 259 254 258 258 249 235 226 230 236 246 249 242 239 225 223 236 248 256 256 251 270 265 245 231 229 243 219 199 193 200 210 216 217 215 213 204 191 179 166 166 165 163 163 161 161 162 162 163 166 170 174 177 178 177 178 178 181 183 183 183 183 184 184 183 185 184 179 173 170 167 167 166 164 165 169 167 165 164 163 165 167 171 175 177 175
270 264 256 259 261 257 255 245 223 221 239 252 252 257 246 225 225 235 252 258 254 268 273 261 243 229 232 226 200 193 195 206 214 214 211 206 197 187 172 162 166 166 163 163 163 164 164 164 167 168 170 175 177 177 177 178 178 180 183 183 182 183 185 186 184 184 184 180 175 172 170 168 167 165 164 166 166 166 166 167 169 172 174 178 182 184
273 276 274 269 268 263 266 269 245 219 225 245 252 262 267 254 230 223 239 253 252 252 258 260 255 239 225 221 200 193 193 198 208 212 207 200 189 179 166 161 167 167 165 165 164 165 167 167 168 168 169 173 176 178 176 176 177 179 182 183 182 183 185 186 185 183 181 179 177 174 172 168 165 163 163 165 166 167 168 167 170 174 177 179 182 186
254 265 280 280 279 283 284 285 277 253 234 235 242 255 266 263 246 221 229 241 241 241 249 253 255 255 236 215 201 194 192 191 199 206 201 195 187 180 168 162 167 166 166 167 166 167 167 166 165 164 167 172 175 176 174 173 176 179 181 182 181 183 185 185 185 183 180 179 178 177 175 170 168 166 164 164 164 165 166 166 168 172 174 175 177 178
260 253 266 268 264 274 285 292 295 297 280 248 234 246 262 260 252 241 231 227 223 235 244 247 252 256 255 228 203 193 193 193 194 191 193 193 187 182 170 162 167 165 165 167 166 165 161 158 161 163 167 171 172 173 173 173 174 177 179 179 179 182 185 185 183 181 180 179 178 178 176 173 172 170 168 167 165 165 167 168 168 170 169 170 171 170
269 256 255 262 262 260 273 294 300 307 300 271 235 230 255 259 245 238 231 227 221 235 241 247 261 255 253 267 219 197 192 194 194 192 196 195 187 180 166 162 165 163 165 166 163 162 160 160 162 165 168 171 171 171 173 174 174 176 177 177 178 180 182 183 182 181 180 179 180 179 177 176 175 174 173 171 170 170 173 174 172 173 173 172 171 172
279 271 253 252 258 246 246 268 288 295 294 273 235 213 232 244 244 235 231 235 223 234 242 244 265 274 276 276 223 199 190 186 191 202 202 195 187 178 161 159 162 163 167 166 163 165 165 166 167 168 170 172 172 171 172 175 175 175 176 177 178 179 181 181 181 181 181 181 182 180 179 180 178 176 175 174 174 175 178 179 178 178 177 176 174 174
281 285 245 239 237 219 226 232 245 262 280 281 260 226 228 238 255 243 225 235 213 228 250 238 236 239 260 250 209 190 194 188 187 206 208 188 181 175 158 157 163 165 169 166 165 168 168 169 170 169 171 172 172 171 172 175 176 176 178 178 179 180 180 181 181 182 181 181 182 181 180 181 180 178 178 179 179 181 183 182 179 179 179 177 174 170
237 260 259 259 251 222 226 229 236 250 270 277 258 231 231 241 265 268 255 256 214 224 262 231 214 235 260 268 239 190 205 207 189 203 205 179 172 171 160 162 167 166 168 166 166 170 170 171 170 169 170 172 172 171 172 175 177 178 180 181 181 180 180 182 183 184 183 181 182 182 181 182 182 181 181 182 183 185 186 184 181 180 179 178 174 169
224 254 267 274 281 265 248 242 235 229 244 274 258 232 238 247 262 271 271 271 228 224 266 229 246 251 250 273 270 214 209 218 209 203 197 176 169 170 165 163 168 166 165 166 167 170 171 172 171 169 169 170 171 172 173 177 180 181 181 181 181 180 180 184 186 186 185 183 182 183 183 183 183 183 182 181 181 182 184 184 183 180 179 180 177 173
232 264 279 280 286 282 273 266 252 238 240 259 268 273 280 269 265 259 265 280 243 232 276 247 251 248 228 254 259 228 216 228 227 204 183 175 167 170 169 163 168 169 164 166 169 170 171 170 167 167 170 173 173 174 175 177 181 182 181 180 180 179 180 185 187 187 186 185 183 184 184 182 182 182 180 179 179 179 179 181 182 181 181 181 178 175
214 259 278 256 261 271 272 262 252 247 247 248 260 304 5 249 262 258 206 233 224 225 275 264 258 257 242 239 240 228 214 232 237 202 171 175 168 171 173 163 167 168 161 165 168 168 169 167 165 167 171 174 174 174 175 176 179 180 180 180 181 181 182 185 187 186 186 185 183 184 184 182 181 180 178 178 179 179 179 180 181 180 180 179 177 174
150 262 276 228 250 301 287 242 223 229 243 247 260 286 43 170 266 295 251 223 202 194 247 263 265 264 249 230 220 214 203 225 233 203 171 177 171 171 171 159 164 165 159 163 166 166 168 166 166 168 171 173 173 173 173 174 176 177 177 178 179 180 182 185 185 185 184 183 182 183 182 181 180 179 178 179 180 181 180 180 181 180 179 176 174 173
101 145 270 289 334 356 265 229 208 197 212 224 237 255 260 258 301 312 281 242 219 189 212 240 262 266 255 239 228 219 216 223 216 185 177 178 172 172 164 152 160 162 159 162 163 166 167 164 165 168 170 172 171 171 171 172 175 175 175 177 178 179 182 184 184 184 183 182 182 182 180 180 180 179 178 179 180 180 179 179 181 180 179 176 174 174
79 144 231 302 313 283 257 233 210 209 209 202 200 219 242 256 276 308 290 240 218 219 220 206 255 263 258 249 254 241 230 226 194 172 178 171 167 169 155 149 157 158 158 162 164 166 165 162 162 163 166 168 169 170 171 172 174 174 175 178 179 180 182 182 182 182 181 181 181 180 179 179 179 179 178 178 178 177 176 178 179 178 177 175 175 177
50 160 219 265 258 251 262 241 209 212 214 203 201 219 231 230 209 234 265 252 227 232 240 240 259 265 268 258 258 251 236 228 181 161 167 162 163 161 148 150 156 155 159 164 164 165 162 160 160 160 162 167 170 172 170 170 174 176 178 179 180 182 182 181 181 181 180 179 179 178 177 177 177 177 176 176 175 174 173 175 175 176 176 174 175 178
223 192 224 267 261 251 262 241 204 204 209 204 207 222 229 230 219 218 241 265 279 244 242 281 273 271 286 278 259 238 223 218 168 157 158 155 158 152 148 151 153 154 160 163 163 161 157 156 157 158 162 166 170 171 170 171 175 178 180 181 182 183 181 180 181 181 179 177 175 175 175 174 175 175 174 173 172 172 172 172 171 173 175 174 175 177
213 184 209 286 327 339 301 237 189 194 206 207 205 223 232 233 230 231 245 265 269 245 218 236 267 271 291 299 277 221 179 150 173 171 152 141 146 146 149 151 151 155 158 158 158 155 154 156 157 160 163 165 169 171 171 173 175 179 181 182 182 181 180 180 181 180 178 175 173 173 173 173 173 173 173 172 171 172 173 172 172 174 177 178 177 178
172 196 201 333 19 17 342 232 188 180 193 213 219 230 241 244 240 241 260 263 256 249 178 181 264 282 301 318 315 274 176 137 192 194 138 128 139 141 146 149 148 153 156 155 156 155 156 159 161 164 165 166 170 172 172 173 175 178 181 182 182 180 178 179 179 178 175 172 172 173 173 174 173 172 173 172 172 172 173 175 178 180 183 184 180 179
179 188 196 215 210 232 260 272 276 213 182 199 214 225 241 258 264 269 290 273 273 307 318 265 284 298 308 322 327 315 303 146 186 213 158 138 143 144 147 149 150 154 156 155 155 156 158 161 164 166 167 166 169 171 172 173 175 177 179 181 181 180 177 176 176 174 172 171 172 173 174 174 173 172 173 173 173 172 173 179 184 184 184 184 180 178
73 173 216 221 222 248 272 285 297 290 235 203 206 221 234 256 267 265 265 283 302 309 272 273 322 331 311 306 313 320 319 329 93 198 182 158 156 155 149 149 153 156 157 155 156 160 160 162 165 165 165 165 166 168 170 173 176 176 178 180 179 178 176 175 173 172 170 171 172 172 173 173 173 173 173 172 172 172 175 180 183 183 182 181 179 179
149 247 292 319 294 291 293 290 290 282 254 215 204 218 228 242 256 254 249 269 277 267 239 237 333 317 288 287 301 321 315 309 3 72 129 143 152 155 150 152 155 157 159 158 158 162 162 162 163 163 164 164 164 166 169 172 175 175 178 180 178 176 175 174 172 170 170 171 171 171 171 171 171 173 173 171 169 171 177 181 180 181 181 179 179 180
156 325 357 354 320 311 320 336 321 308 274 230 209 212 224 236 250 253 249 255 252 251 235 158 270 279 261 268 297 321 319 308 335 50 63 92 116 137 147 153 156 156 160 160 159 162 164 163 163 162 161 163 165 168 171 172 174 176 177 179 178 176 174 172 171 170 170 171 171 170 170 169 169 171 172 171 170 173 178 181 181 181 180 179 179 179
98 17 354 357 328 316 332 357 350 345 325 272 229 213 222 232 247 252 246 251 250 253 261 235 245 267 258 272 304 321 324 310 324 54 61 75 90 109 134 146 152 155 159 159 157 161 162 163 164 160 160 168 171 172 173 172 173 176 178 178 177 175 173 170 169 170 170 170 170 169 168 168 169 171 172 171 172 177 181 181 181 180 179 179 180 179
98 10 341 1 342 305 328 355 334 318 317 290 252 227 226 228 235 236 230 242 243 198 221 238 240 256 265 293 307 310 308 299 316 40 45 73 88 99 127 142 149 151 150 150 152 157 161 163 164 164 166 170 171 171 172 171 171 175 178 178 176 173 171 169 169 169 169 168 168 168 168 168 170 170 171 172 174 179 182 181 181 180 179 179 179 178
143 127 43 360 326 277 310 331 311 298 302 271 246 228 231 232 229 231 229 239 241 197 202 222 210 214 242 263 287 293 297 300 337 23 2 104 97 97 118 135 148 152 152 154 158 162 166 167 169 170 170 167 167 170 172 172 173 175 177 176 174 171 170 170 170 169 168 167 166 167 168 169 170 170 171 174 177 180 181 182 181 180 179 179 179 178
153 141 122 259 264 282 307 317 315 310 246 249 252 229 231 236 235 238 233 227 230 211 169 155 152 175 214 222 246 276 283 280 277 249 221 136 121 131 134 128 144 159 161 162 163 166 169 171 172 169 166 165 166 169 171 173 174 175 175 174 172 171 170 170 170 169 167 166 167 168 169 170 171 171 173 175 178 180 181 181 181 180 180 180 179 179
146 128 114 136 218 285 315 348 10 298 241 273 298 289 252 242 239 248 256 240 227 200 157 151 162 167 203 220 214 230 250 251 243 243 227 146 140 159 160 137 126 158 177 167 163 166 168 168 169 166 165 165 165 166 168 171 173 174 174 173 171 171 170 170 170 168 166 167 168 169 170 171 172 173 175 176 178 180 182 181 180 180 180 180 180 181
152 139 109 145 211 294 342 9 333 260 281 295 301 320 347 335 319 322 304 271 239 187 168 176 175 177 202 221 217 218 231 240 245 249 244 187 154 159 165 153 147 177 207 185 163 164 166 166 169 167 164 163 162 163 165 167 170 172 172 172 171 171 171 170 168 167 166 166 168 170 171 171 172 173 175 177 178 180 182 182 181 180 181 181 181 182
141 136 97 120 208 13 354 288 262 288 307 304 298 343 25 1 310 313 288 269 253 194 178 176 173 187 204 218 232 236 238 278 299 283 274 254 198 177 177 171 166 178 194 191 174 169 166 165 165 162 159 159 160 162 162 163 166 169 169 170 171 171 172 169 166 167 167 167 167 169 171 171 172 174 175 176 179 182 183 183 181 180 181 181 181 182
93 109 110 117 191 114 91 286 303 331 307 288 295 308 314 296 286 276 246 272 314 359 339 236 190 199 206 218 245 261 306 331 299 279 286 275 228 199 186 179 176 177 183 185 179 166 159 159 158 155 155 157 159 161 160 160 164 165 165 169 171 170 170 169 167 166 166 167 168 169 169 170 172 175 176 178 182 184 185 183 182 181 182 182 182 183
68 95 109 108 225 171 116 285 294 296 276 277 295 306 319 323 313 311 269 277 335 4 352 332 294 244 219 223 260 275 284 284 269 262 266 238 136 144 155 166 174 174 175 178 173 160 153 153 152 152 154 155 157 161 161 161 162 163 163 166 168 168 169 169 168 166 166 168 169 170 171 172 174 176 179 182 185 187 186 184 182 182 183 184 184 184
352 19 72 76 260 229 161 231 254 243 264 284 305 318 321 322 334 11 107 261 316 345 338 336 333 301 248 219 242 259 239 230 235 240 232 175 97 96 124 144 154 150 159 171 166 156 152 152 150 151 154 155 158 161 161 160 161 161 161 163 165 167 169 169 167 166 167 168 170 172 175 174 175 180 183 185 186 187 186 185 182 181 182 182 184 186
335 338 57 225 270 267 205 228 255 253 264 285 301 308 312 325 359 42 216 242 303 323 318 330 338 320 293 226 218 233 231 219 209 200 186 144 109 117 117 107 109 103 104 134 150 149 149 152 153 153 155 156 157 160 160 159 159 160 160 161 164 167 167 166 166 166 166 168 171 173 174 175 179 186 188 187 186 186 186 185 182 180 180 182 184 186
328 324 333 345 305 284 234 234 264 276 281 290 291 295 312 347 334 244 251 275 301 304 314 333 339 330 327 293 238 242 230 211 198 185 168 153 159 163 129 114 116 110 108 123 141 145 146 149 151 150 151 154 155 159 161 158 155 158 159 160 163 165 163 162 164 165 166 168 172 173 174 178 185 189 188 186 185 183 183 185 184 182 181 182 183 183
334 330 330 334 316 287 276 275 284 285 288 296 302 314 358 103 223 275 308 320 318 316 324 338 339 323 326 353 348 310 242 188 173 176 171 166 168 154 128 130 137 135 129 131 140 145 144 143 145 146 149 153 154 158 160 157 155 157 161 163 164 163 162 161 162 165 166 168 171 173 175 180 185 185 184 185 185 183 182 183 183 183 182 182 181 178
29 359 304 306 57 35 292 271 283 301 300 306 313 315 321 305 296 313 326 325 328 329 328 328 324 307 304 19 26 1 341 302 238 181 163 158 151 133 127 138 143 144 144 142 144 146 143 140 142 145 149 153 155 159 161 159 157 159 162 165 164 161 161 162 162 164 166 168 168 170 173 178 182 183 183 185 185 183 181 180 179 180 182 181 179 175
193 205 241 270 222 198 246 261 283 297 296 314 332 303 291 302 300 297 324 339 332 326 322 317 305 299 306 13 58 39 19 357 339 333 249 166 157 147 146 150 150 151 147 142 145 147 144 143 144 145 149 155 158 161 162 161 160 160 162 164 164 163 162 163 163 163 163 164 166 169 173 177 180 182 183 184 185 183 179 178 177 177 179 179 178 175
213 209 225 257 225 218 250 255 263 277 288 321 336 310 298 303 295 303 350 5 344 327 314 300 287 290 311 8 61 66 43 19 4 358 359 359 1 169 162 156 154 153 147 144 147 147 143 143 145 145 149 156 159 159 161 161 160 159 161 163 166 168 166 164 165 163 161 163 169 173 176 177 177 180 182 183 184 184 181 180 179 178 178 178 178 177
208 179 187 252 237 229 257 251 258 281 287 307 328 315 307 301 289 299 357 24 355 317 288 277 281 299 328 15 55 71 54 41 33 22 17 21 12 348 322 168 153 153 151 148 147 144 141 141 145 148 150 154 158 157 158 160 160 159 161 163 164 168 169 165 164 163 162 166 171 173 175 176 176 177 179 179 181 181 181 181 180 179 178 178 177 177
237 181 205 273 259 232 245 260 279 289 272 246 243 308 301 302 309 320 345 37 342 282 268 272 307 2 15 18 29 56 57 47 44 38 27 40 37 8 346 354 35 116 153 149 144 141 140 140 143 148 150 149 151 153 154 157 159 159 162 164 162 164 167 165 163 164 165 169 171 170 173 177 177 176 177 178 181 182 181 182 183 183 184 184 183 182
305 249 266 299 291 269 260 276 294 307 296 286 324 285 287 306 326 321 304 216 265 271 280 322 5 27 44 35 24 46 55 43 46 52 36 32 57 39 3 357 5 4 12 107 141 138 135 138 142 144 148 148 147 149 151 154 157 158 162 165 163 160 160 160 160 163 166 167 167 168 171 175 176 177 178 180 182 185 187 188 190 191 192 192 192 193
354 333 314 331 314 292 266 263 274 306 297 292 297 291 294 314 319 300 274 219 244 274 313 356 12 29 50 52 45 57 60 39 41 60 53 36 58 62 31 8 1 5 6 351 309 144 132 135 143 141 142 146 146 145 146 149 154 157 158 162 162 157 154 153 153 156 160 162 163 166 170 171 173 176 179 180 181 183 186 191 195 196 195 195 198 202
185 199 152 78 285 279 274 260 227 188 253 269 270 279 294 315 301 292 303 324 290 293 322 347 15 41 51 53 52 62 69 51 43 64 66 51 50 69 73 51 8 334 8 4 333 183 141 136 140 137 135 139 142 142 142 142 145 149 152 157 160 158 154 153 152 154 158 162 165 169 170 170 171 174 176 178 180 179 179 183 191 196 200 203 204 205
Height
757 766 769 768 766 762 757 755 754 751 747 746 744 741 737 734 730 721 716 707 702 711 712 709 711 708 707 709 707 704 703 705 707 707 712 716 718 721 723 725 726 728 729 730 734 739 743 748 754 758 762 765 768 771 774 777 779 782 784 787 790 792 795 797 798 801 803 805 807 809 811 812 814 816 817 818 819 819 820 821 822 822 824 826 827 828
756 765 765 760 757 754 752 750 748 748 746 745 744 743 738 734 729 718 713 707 701 709 711 706 707 705 705 707 705 703 705 707 706 705 709 711 714 716 718 722 724 725 727 729 733 738 742 747 751 756 761 764 766 769 772 775 777 780 783 785 788 790 793 795 796 799 801 803 805 806 808 810 813 814 815 816 817 818 819 820 821 822 823 825 826 827
762 762 756 751 749 748 748 746 745 745 744 745 743 744 742 735 730 720 710 705 701 706 709 704 704 703 700 702 701 699 700 702 701 700 702 704 709 713 715 719 721 724 727 730 733 737 740 745 749 754 759 762 765 767 770 773 777 780 781 783 786 788 790 793 795 797 799 801 803 805 807 809 811 813 815 816 817 818 819 820 821 822 823 824 825 826
765 758 749 744 744 745 746 744 743 743 741 743 742 744 743 734 734 731 716 705 700 701 704 702 703 702 699 698 698 698 695 694 696 697 697 697 702 707 710 713 717 721 726 730 732 735 739 743 748 752 757 760 764 766 768 772 776 778 780 781 783 786 789 791 793 795 798 800 802 804 806 809 811 813 815 816 817 818 819 819 821 821 822 823 824 825
757 749 742 741 741 742 744 742 741 743 743 740 737 740 740 732 731 730 719 709 703 699 696 700 709 708 702 703 701 696 693 690 691 695 698 697 697 701 705 708 711 715 720 725 730 733 737 741 745 749 754 758 761 764 766 769 773 776 778 780 782 785 787 789 791 794 796 798 801 803 806 808 810 812 814 815 816 817 818 819 820 821 822 823 824 824
748 741 737 738 738 738 742 742 738 740 743 740 733 730 731 729 726 724 719 716 719 715 697 698 720 718 701 700 699 694 694 694 692 694 698 697 697 700 704 707 709 711 714 718 723 728 732 737 742 747 751 754 757 760 764 767 770 774 777 778 780 783 785 787 789 792 794 796 799 801 803 805 808 810 812 813 814 816 817 818 819 821 821 822 823 823
741 736 734 735 736 736 738 739 735 734 740 741 730 721 723 725 725 723 719 719 729 725 698 691 716 721 704 696 692 689 692 694 694 695 694 693 696 698 701 705 708 710 713 715 718 723 729 734 739 744 747 749 753 757 762 766 768 772 775 777 778 781 783 785 787 789 792 794 797 799 801 803 805 808 810 812 814 815 816 818 819 820 821 821 822 823
737 735 735 733 733 735 736 736 731 729 737 737 722 716 718 720 723 723 719 719 722 718 703 691 700 714 711 697 686 685 690 692 692 694 692 689 691 693 696 701 704 706 710 714 718 721 725 729 733 738 742 746 750 755 760 764 766 770 773 775 777 779 781 784 786 788 790 792 794 797 800 803 805 806 809 812 814 815 816 817 818 819 820 821 822 823
736 736 735 732 734 734 732 728 723 723 731 728 717 714 714 714 717 717 717 718 716 720 721 705 696 710 712 693 681 683 689 693 691 689 689 687 687 689 693 699 701 702 705 708 714 719 722 725 728 733 738 743 749 753 757 761 764 768 771 773 775 777 780 782 784 786 788 790 793 796 799 801 804 807 809 811 813 815 816 817 818 818 819 820 821 822
737 735 731 731 733 731 727 720 715 718 723 719 714 714 712 709 709 711 715 716 718 729 731 713 701 710 708 691 683 685 686 688 686 682 682 683 684 686 690 697 699 700 704 706 710 714 717 720 725 730 736 742 747 751 755 759 762 766 769 772 773 775 778 780 782 784 786 789 791 794 797 800 803 806 808 811 813 814 815 816 817 818 819 820 821 822
736 731 729 730 731 728 724 719 713 713 714 712 713 716 717 712 707 709 711 711 725 734 725 709 699 704 707 691 681 682 677 675 677 678 678 679 682 684 686 693 696 699 703 707 709 711 714 718 723 729 734 739 745 749 753 756 759 763 766 769 771 774 777 779 781 783 785 787 790 793 795 798 800 803 806 808 810 812 814 815 817 818 819 820 821 822
736 734 731 726 726 724 723 722 715 710 710 711 714 719 724 720 713 716 714 713 731 735 716 701 692 697 709 693 673 670 666 663 668 673 675 676 677 679 683 689 692 696 701 705 709 712 715 720 724 729 733 737 742 747 750 754 757 760 764 767 769 772 775 777 779 782 783 786 789 791 794 796 798 800 803 805 808 810 812 814 816 817 818 819 821 822
740 735 731 724 722 721 725 728 722 716 714 715 717 723 734 735 728 730 727 720 726 722 704 694 691 696 700 685 667 661 658 657 661 662 665 668 671 674 680 686 688 692 698 702 707 711 714 719 722 726 731 734 739 743 747 751 754 757 761 764 767 770 773 776 778 780 782 784 787 790 792 794 796 799 801 803 806 808 810 812 814 815 817 818 820 821
750 738 729 728 724 719 723 731 733 727 721 719 719 724 737 742 740 738 731 723 722 713 695 686 692 701 695 675 659 652 650 651 653 654 656 659 665 670 676 683 687 690 694 698 703 708 711 714 717 721 726 730 735 739 744 748 751 755 759 761 765 768 771 774 776 779 781 783 785 788 790 792 795 797 799 802 804 806 808 810 812 814 815 817 819 820
763 751 734 729 725 719 719 724 728 726 724 721 714 717 728 732 735 734 726 722 719 710 696 690 696 703 695 672 649 641 643 645 647 648 650 654 658 664 672 680 685 688 691 695 700 704 707 710 713 717 722 726 731 736 740 745 748 752 756 759 762 766 769 772 775 777 779 781 784 787 789 791 793 796 798 800 802 804 807 809 811 813 815 817 818 820
762 754 733 724 719 717 719 717 717 723 729 721 710 717 724 719 720 721 718 715 711 708 702 697 694 687 677 660 641 636 639 641 646 646 647 654 655 658 669 676 680 685 689 693 698 703 705 708 711 714 718 723 728 733 737 741 745 749 752 756 759 763 767 770 773 775 778 780 783 785 787 790 792 795 797 799 801 803 806 808 810 812 814 816 817 819
758 749 730 724 719 715 718 715 713 721 727 718 713 719 714 705 710 719 718 709 708 716 708 696 692 682 673 662 643 638 640 640 644 645 645 651 652 654 663 670 676 680 685 691 695 700 703 706 709 711 715 720 725 730 734 738 741 745 749 753 758 762 765 768 771 773 776 779 781 784 786 788 790 793 795 796 799 802 805 808 809 812 813 815 816 818
757 750 732 726 727 720 715 715 713 713 715 719 721 715 704 702 707 715 725 721 716 722 710 695 695 690 685 674 649 641 647 644 643 644 644 647 649 653 658 664 671 674 680 687 691 696 700 703 707 710 714 718 722 726 731 735 739 743 748 751 755 759 762 765 769 772 774 776 779 782 784 787 789 791 793 795 798 801 804 806 808 810 812 813 815 816
750 752 737 726 728 722 715 719 720 713 708 713 714 707 713 728 725 716 727 730 725 726 717 701 696 690 684 671 650 646 650 645 640 642 644 645 647 650 654 659 666 671 677 684 689 694 698 700 704 708 713 718 722 726 730 734 739 742 746 750 754 758 761 764 768 771 773 775 777 780 782 785 788 790 792 795 797 800 802 805 807 808 810 812 813 815
741 752 742 726 724 724 720 721 725 721 712 708 709 708 717 730 729 719 719 718 719 725 723 712 703 692 675 657 646 646 645 641 640 641 644 644 643 646 650 657 664 669 675 681 687 693 695 697 701 705 711 717 721 725 728 733 738 741 745 749 753 757 760 764 767 769 771 773 776 778 781 784 786 789 791 794 796 799 801 803 805 807 808 810 812 814
742 754 748 733 727 729 726 719 718 720 717 715 718 720 720 720 720 721 717 706 708 720 721 719 715 693 662 645 642 642 638 635 636 638 641 642 641 643 647 654 661 666 672 678 684 689 692 695 699 704 710 716 720 725 728 732 736 739 743 747 751 755 758 762 765 767 769 771 774 776 779 782 785 788 790 792 795 797 799 801 803 805 807 808 811 813
744 755 755 747 740 734 725 713 707 709 711 713 717 720 723 722 723 734 731 706 697 708 709 713 717 689 652 638 638 638 635 631 629 632 636 638 639 642 646 651 658 664 670 676 680 684 688 693 698 704 710 716 720 724 726 730 734 738 742 745 749 753 756 759 762 765 767 769 772 775 777 781 784 787 789 791 794 796 798 800 801 803 805 807 810 811
745 752 757 752 741 729 717 706 702 703 702 705 710 712 716 719 722 738 741 713 695 699 695 700 709 684 646 634 634 633 632 627 624 627 631 634 635 638 644 650 655 661 667 672 676 680 684 690 695 702 708 714 718 721 724 728 732 736 739 743 747 750 753 757 760 763 765 768 771 773 776 780 782 785 787 790 792 794 796 798 800 802 804 806 809 810
746 749 753 745 728 717 709 701 698 698 699 704 708 708 711 715 714 721 725 711 701 700 695 701 708 682 647 635 632 629 628 625 623 623 627 632 635 637 643 649 654 660 665 669 674 679 684 689 694 700 706 712 717 720 723 726 730 734 738 741 745 748 751 754 758 761 763 766 769 772 775 778 781 783 786 788 791 793 795 796 798 801 803 805 807 809
746 747 751 743 728 718 713 709 705 702 702 705 706 705 705 706 707 709 710 708 707 700 696 708 713 686 653 639 632 626 625 626 625 622 624 631 637 640 643 647 653 659 664 669 675 680 685 689 694 699 704 709 714 718 721 724 728 732 735 739 742 746 749 752 755 759 761 764 768 770 774 776 779 782 784 787 789 791 793 795 797 800 802 804 806 807
743 745 747 743 737 732 728 723 714 706 704 704 704 704 703 700 702 707 709 712 710 697 695 709 710 686 663 653 645 632 624 626 628 625 623 629 638 643 645 649 653 658 663 670 675 680 684 688 692 696 700 705 710 714 718 722 726 730 734 737 740 743 746 750 753 757 759 762 765 769 772 774 777 780 782 785 787 790 792 794 796 799 801 802 804 806
738 741 741 740 739 736 731 722 707 700 704 707 705 705 703 700 699 702 709 715 708 697 698 703 699 689 680 673 668 655 638 631 632 630 626 630 638 643 645 649 654 657 662 668 673 678 682 686 690 693 698 702 706 711 715 719 723 728 731 735 738 741 744 748 751 755 757 760 763 767 769 772 775 778 781 784 786 788 790 793 796 798 799 801 803 805
731 736 734 734 733 726 720 713 705 701 702 702 704 704 703 703 701 702 709 711 705 705 706 697 693 699 697 686 679 671 657 643 634 631 629 629 635 639 642 648 654 659 663 666 672 677 680 685 688 692 696 700 705 709 713 718 722 725 729 732 736 739 742 746 749 752 756 759 761 765 767 770 774 777 780 782 784 787 790 792 795 797 798 801 802 804
728 731 726 726 726 717 710 709 710 708 699 694 698 702 701 702 701 701 702 702 705 710 703 692 695 702 697 689 680 671 667 654 637 631 631 629 631 635 639 646 654 660 663 666 671 675 678 683 687 691 695 699 704 708 712 716 720 723 728 731 733 737 740 743 747 750 754 757 760 763 766 769 772 776 779 781 783 786 789 792 794 796 798 799 801 803
723 727 725 726 725 714 707 708 709 708 700 692 693 696 698 698 697 696 695 694 698 698 690 688 698 698 690 687 679 666 666 660 641 634 634 633 634 637 639 645 651 657 662 664 668 673 677 680 684 688 694 698 702 706 710 714 717 721 725 728 731 735 738 741 745 748 751 755 758 761 764 767 771 774 777 780 782 785 789 791 794 795 797 798 800 801
719 726 728 729 728 718 706 703 704 704 702 698 692 690 692 693 693 692 691 690 690 690 686 687 695 693 682 681 678 669 669 666 651 643 642 639 638 641 644 648 652 655 659 662 666 671 675 679 683 687 691 695 699 703 707 711 715 719 723 726 729 733 736 739 743 746 750 753 756 760 763 766 769 773 775 778 781 784 788 790 793 794 796 797 798 800
722 728 729 730 733 724 709 707 708 702 700 700 695 690 688 689 690 689 686 684 682 685 689 690 691 687 676 676 681 678 676 673 659 649 648 645 643 646 648 651 653 656 660 664 668 672 675 678 682 685 687 691 695 700 705 709 713 717 721 725 728 731 735 738 741 745 748 751 755 758 761 765 768 771 774 776 779 783 787 790 792 793 795 796 797 799
723 727 730 736 737 724 713 714 712 704 705 704 694 685 684 685 685 682 680 676 672 676 685 686 683 679 673 677 683 680 675 670 658 652 652 649 648 652 653 652 655 657 659 663 666 670 674 677 678 681 684 688 693 698 703 707 711 715 719 723 727 730 733 736 740 743 747 750 753 757 760 764 767 770 773 775 778 782 786 788 790 792 793 795 796 798
722 721 728 739 736 724 718 715 707 707 711 700 683 677 679 679 679 679 677 672 666 665 669 673 674 672 671 676 680 678 674 667 658 654 652 648 650 656 657 655 656 658 658 660 662 666 671 674 677 679 682 687 692 697 702 707 711 715 719 722 726 729 732 735 738 742 745 748 752 755 759 762 765 769 772 774 777 781 784 787 789 790 792 793 795 797
721 720 726 737 735 725 719 715 711 710 704 689 678 674 673 670 671 672 669 664 661 658 658 665 671 669 668 671 672 672 671 663 655 651 647 645 647 651 653 655 658 661 661 660 660 664 668 672 676 679 682 686 691 696 701 706 710 714 718 721 724 727 730 734 737 740 743 746 750 753 757 760 764 767 770 773 776 779 783 785 787 788 790 791 793 795
713 717 724 731 731 725 722 723 721 710 693 683 678 672 669 670 672 675 674 665 657 654 654 662 666 662 663 665 662 663 662 655 651 647 641 641 643 644 648 653 656 662 663 659 659 662 665 669 673 676 680 684 689 694 699 704 708 713 716 719 722 726 729 733 736 739 742 744 747 751 754 758 762 766 769 772 775 778 781 783 785 786 788 790 792 795
700 708 715 720 722 724 729 728 719 707 694 683 676 673 676 680 680 684 685 670 653 649 652 655 658 657 658 658 655 655 655 652 652 649 641 638 639 640 643 647 650 655 657 655 656 659 661 666 670 674 679 683 688 693 697 702 707 711 714 718 721 724 728 731 734 737 740 743 746 749 752 755 760 764 767 770 773 776 779 781 783 784 786 789 791 793
695 701 709 716 718 722 730 728 719 714 704 688 680 677 676 678 676 676 679 670 657 655 656 654 654 653 653 654 652 651 653 656 658 654 644 640 639 638 640 642 644 647 649 650 653 657 660 664 668 672 677 682 687 692 696 701 705 709 713 716 719 722 726 729 732 735 738 742 745 748 751 754 757 762 766 769 772 775 777 779 781 783 785 788 790 792
699 700 705 713 717 719 726 729 725 721 707 689 684 679 673 674 671 667 673 674 666 665 664 660 657 654 650 650 649 649 655 662 662 654 645 640 638 637 639 639 639 642 644 646 649 654 659 663 667 672 676 681 686 691 695 699 704 708 712 715 718 722 724 727 731 733 737 740 744 748 751 753 756 760 764 767 770 773 776 778 780 782 784 787 789 791
707 705 707 715 719 719 724 727 723 717 704 690 685 680 673 670 668 672 684 682 669 666 666 663 662 659 651 647 647 650 656 659 656 649 642 639 637 636 638 638 638 639 642 644 647 652 657 661 666 671 675 679 684 689 694 698 702 706 711 714 717 721 723 726 729 732 736 740 743 747 750 752 757 761 764 766 769 772 775 777 779 781 783 786 788 790
719 716 714 719 722 721 723 725 718 710 701 691 687 682 674 671 675 685 689 681 670 669 666 661 662 662 654 647 647 648 648 646 644 641 638 638 638 637 638 639 640 640 643 646 649 652 656 661 664 669 673 678 683 688 693 697 701 705 709 712 716 720 722 725 729 732 736 739 743 746 748 752 756 760 763 765 768 771 774 776 777 779 781 784 786 788
729 724 719 720 724 722 719 718 715 708 700 693 688 682 676 679 687 688 680 674 672 670 664 660 662 663 657 650 646 645 642 638 638 638 637 638 638 638 639 641 642 643 644 646 649 652 656 661 665 669 674 678 682 687 691 695 700 704 708 711 715 719 722 725 728 732 735 739 742 745 747 751 755 759 762 764 766 769 772 775 776 778 780 782 784 786
734 731 727 726 727 723 717 715 715 712 703 694 689 684 680 684 688 684 678 675 673 668 664 662 662 662 659 651 647 646 641 637 637 638 637 637 637 638 640 641 643 644 644 647 651 653 655 661 665 669 673 677 681 686 690 694 698 703 707 710 714 718 721 724 727 731 734 738 741 744 747 750 754 757 760 763 765 767 770 772 775 777 778 780 782 784
735 735 733 731 730 728 724 719 716 713 704 696 693 692 688 686 684 683 682 679 674 670 668 666 663 661 658 652 648 648 646 642 639 637 636 637 638 639 641 641 641 643 644 646 650 653 655 660 665 669 673 677 681 684 688 692 697 701 705 709 713 716 719 723 726 730 734 737 740 743 747 750 753 756 758 761 763 766 768 770 773 775 777 779 781 783
732 730 730 730 727 726 724 718 714 711 705 698 697 695 690 685 682 682 681 678 676 674 672 669 666 662 657 651 647 648 651 652 648 643 640 638 636 637 639 639 639 640 642 645 649 652 655 659 663 668 672 676 680 683 686 690 694 699 703 707 711 714 717 721 725 729 732 735 739 743 746 749 752 754 755 758 760 763 765 768 771 773 776 778 779 781
723 725 728 728 724 720 719 716 712 709 704 698 696 695 690 686 683 681 678 676 675 675 676 673 667 661 657 651 648 650 655 656 655 653 650 646 644 641 639 638 639 640 642 645 648 651 654 658 663 667 672 676 679 682 686 689 692 697 702 705 709 712 716 720 724 728 731 735 738 742 745 747 750 753 754 757 759 761 763 765 768 771 774 776 778 780
719 723 726 724 720 718 717 713 707 704 701 697 696 695 693 689 684 680 677 675 674 678 680 674 665 660 657 653 651 654 656 654 654 656 657 656 658 657 651 644 643 644 644 646 648 651 654 659 664 668 672 676 679 682 685 689 693 696 700 704 707 711 715 718 723 727 730 734 737 740 743 745 748 751 754 756 759 761 763 765 767 769 771 773 776 778
716 719 722 720 716 714 711 706 701 699 697 695 696 697 695 692 686 679 675 674 676 680 678 668 660 657 656 654 654 655 654 654 653 655 658 659 661 666 665 658 654 653 652 651 652 654 657 662 666 671 674 677 680 683 686 689 693 696 700 703 706 710 714 718 722 726 730 733 736 739 742 744 747 750 753 755 758 760 762 764 766 767 769 770 772 775
712 716 720 718 715 711 706 703 700 698 695 692 694 695 693 691 689 684 678 677 679 678 670 660 656 655 654 655 656 655 655 656 653 654 660 660 659 666 670 667 664 664 661 659 658 657 659 664 667 672 676 678 681 685 687 690 694 697 700 703 706 709 713 718 722 726 730 733 736 739 742 744 747 749 752 755 757 759 761 763 764 765 767 769 771 772
713 718 719 720 720 713 705 701 700 700 698 693 692 692 690 689 691 689 681 678 678 675 666 659 657 657 656 657 658 656 656 658 656 655 660 662 662 666 670 670 671 670 668 669 668 662 661 666 669 671 676 679 681 685 689 692 695 699 701 705 708 710 714 719 723 727 730 733 736 738 741 744 747 749 752 754 756 759 761 763 765 766 767 769 771 773
713 715 714 720 724 715 702 697 698 699 698 693 690 690 689 690 692 686 677 674 673 669 665 661 660 659 659 660 660 658 657 659 658 657 660 666 669 669 669 672 677 677 674 675 675 670 666 668 671 673 677 680 682 686 690 693 697 700 703 707 710 713 715 719 723 727 730 733 735 738 740 743 746 749 751 754 756 758 761 763 765 767 768 769 771 773